{"data":{"norad_id":43925,"epoch":"2026-09-20T00:03:02.998656Z","epoch_age_seconds":58395,"freshness":"FRESH","line1":"1 43925U 19002D   26263.00211804  .00000022  00000+0  71386-6 0  9994","line2":"2 43925  86.3970 313.9500 0002274  93.3035 266.8421 14.34217365402547","mean_motion":14.34217365,"eccentricity":0.0002274,"inclination_deg":86.397,"raan_deg":313.95,"arg_perigee_deg":93.3035,"mean_anomaly_deg":266.8421,"bstar":7.1386e-7,"rev_number":40254,"period_min":100.40319097656,"perigee_km":776.04120479588,"apogee_km":779.29566510769,"semimajor_km":7155.8054349518,"source":"CELESTRAK","updated_at":"2026-09-20T09:00:36.355560Z"}}